This is the latest recevied weather packets stored in our database for station/object DO1SN-13. If no packets are shown the sender has not sent any weather packets the latest 10 day(s).
| Time | Temp. | Humidity | Pressure | Rain* | Wind** | Luminosity | Snow |
|---|---|---|---|---|---|---|---|
| 1787469338 | 23.33° C | - | 1025.8 hPa | 0 mm | - | - | - |
| 1787468974 | 22.78° C | - | 1025.7 hPa | 0 mm | - | - | - |
| 1787468610 | 22.22° C | - | 1025.8 hPa | 0 mm | - | - | - |
| 1787468245 | 20.56° C | - | 1025.9 hPa | 0 mm | - | - | - |
| 1787467880 | 22.22° C | - | 1025.8 hPa | 0 mm | - | - | - |
| 1787467516 | 20.56° C | - | 1025.8 hPa | 0 mm | - | - | - |
| 1787467152 | 20.56° C | - | 1025.7 hPa | 0 mm | - | - | - |
| 1787466788 | 19.44° C | - | 1025.7 hPa | 0 mm | - | - | - |
| 1787466423 | 20° C | - | 1025.7 hPa | 0 mm | - | - | - |
| 1787466059 | 19.44° C | - | 1025.7 hPa | 0 mm | - | - | - |
| 1787465695 | 18.89° C | - | 1025.7 hPa | 0 mm | - | - | - |
| 1787465331 | 18.33° C | - | 1025.6 hPa | 0 mm | - | - | - |
| 1787464967 | 18.33° C | - | 1025.6 hPa | 0 mm | - | - | - |
| 1787464603 | 18.33° C | - | 1025.5 hPa | 0 mm | - | - | - |
| 1787464239 | 17.78° C | - | 1025.6 hPa | 0 mm | - | - | - |
| 1787463874 | 17.78° C | - | 1025.6 hPa | 0 mm | - | - | - |
| 1787463510 | 18.89° C | - | 1025.5 hPa | 0 mm | - | - | - |
| 1787463146 | 18.33° C | - | 1025.4 hPa | 0 mm | - | - | - |
| 1787462782 | 18.33° C | - | 1025.4 hPa | 0 mm | - | - | - |
| 1787462418 | 18.33° C | - | 1025.3 hPa | 0 mm | - | - | - |
| 1787462054 | 18.33° C | - | 1025.3 hPa | 0 mm | - | - | - |
| 1787461690 | 18.33° C | - | 1025.1 hPa | 0 mm | - | - | - |
| 1787461325 | 18.33° C | - | 1025.2 hPa | 0 mm | - | - | - |
| 1787460961 | 18.33° C | - | 1025.1 hPa | 0 mm | - | - | - |
| 1787460597 | 18.33° C | - | 1025 hPa | 0 mm | - | - | - |
* Rain latest hour (hover to see other rain measurements)
** Current wind speed in m/s (hover to see current wind gust speed)